Tracking 27111 objects as of 28-Mar-2023
HD Live streaming from Space Station
objects crossing your sky now

STARLINK-5619

Track STARLINK-5619 now!
10-day predictions
STARLINK-5619 is classified as:


NORAD ID: 55755
Int'l Code: 2023-028Q
Perigee: 365.1 km
Apogee: 368.8 km
Inclination: 70.0 °
Period: 91.7 minutes
Semi major axis: 6737 km
RCS: Unknown
Launch date: March 3, 2023
Source: United States (US)
Launch site: AIR FORCE WESTERN TEST RANGE (AFWTR)
Your satellite tracking list
Your tracking list is empty




NASA's NSSDC Master Catalog

Two Line Element Set (TLE):
1 55755U 23028Q   23087.41233310 -.00200510  00000-0 -17243-2 0  9998
2 55755  70.0027  85.8958 0002727 254.3925 105.6969 15.69668041  4541
Source of the keplerian elements: AFSPC